This is the latest recevied weather packets stored in our database for station/object K0QED. If no packets are shown the sender has not sent any weather packets the latest 10 day(s).
| Time | Temp. | Humidity | Pressure | Rain* | Wind** | Luminosity | Snow |
|---|---|---|---|---|---|---|---|
| 1788030297 | 26.11° C | 37% | 1026.7 hPa | 0 mm | - | 326 W/m² | - |
| 1788029992 | 26.11° C | 37% | 1027 hPa | 0 mm | - | 301 W/m² | - |
| 1788029687 | 25.56° C | 37% | 1026.9 hPa | 0 mm | - | 418 W/m² | - |
| 1788029382 | 26.11° C | 37% | 1026.9 hPa | 0 mm | - | 358 W/m² | - |
| 1788029081 | 26.67° C | 37% | 1027.1 hPa | 0 mm | - | 364 W/m² | - |
| 1788028775 | 26.11° C | 36% | 1027.1 hPa | 0 mm | - | 604 W/m² | - |
| 1788028470 | 26.11° C | 37% | 1027.1 hPa | 0 mm | - | 450 W/m² | - |
| 1788028166 | 25.56° C | 37% | 1027.1 hPa | 0 mm | - | 446 W/m² | - |
| 1788027860 | 25.56° C | 39% | 1027.2 hPa | 0 mm | - | 348 W/m² | - |
| 1788027555 | 25.56° C | 38% | 1027.4 hPa | 0 mm | - | 250 W/m² | - |
| 1788027255 | 25.56° C | 39% | 1027.6 hPa | 0 mm | - | 238 W/m² | - |
| 1788026954 | 25.56° C | 38% | 1027.4 hPa | 0 mm | - | 248 W/m² | - |
| 1788026649 | 25.56° C | 38% | 1027.4 hPa | 0 mm | - | 244 W/m² | - |
| 1788026345 | 25.56° C | 38% | 1027.5 hPa | 0 mm | - | 299 W/m² | - |
| 1788026040 | 25.56° C | 40% | 1027.1 hPa | 0 mm | - | 288 W/m² | - |
| 1788025739 | 25° C | 39% | 1027.4 hPa | 0 mm | - | 281 W/m² | - |
| 1788025438 | 25° C | 39% | 1027.1 hPa | 0 mm | - | 268 W/m² | - |
| 1788025134 | 25.56° C | 38% | 1027.4 hPa | 0 mm | - | 243 W/m² | - |
| 1788024842 | 25° C | 38% | 1027.4 hPa | 0 mm | - | 297 W/m² | - |
| 1788024530 | 25.56° C | 38% | 1027.5 hPa | 0 mm | - | 311 W/m² | - |
| 1788024229 | 25.56° C | 37% | 1027.4 hPa | 0 mm | - | 339 W/m² | - |
| 1788023925 | 26.11° C | 38% | 1027.4 hPa | 0 mm | - | 306 W/m² | - |
| 1788023620 | 25.56° C | 38% | 1027.5 hPa | 0 mm | - | 340 W/m² | - |
| 1788023316 | 25.56° C | 37% | 1027.5 hPa | 0 mm | - | 563 W/m² | - |
| 1788023010 | 25° C | 39% | 1027.5 hPa | 0 mm | - | 582 W/m² | - |
* Rain latest hour (hover to see other rain measurements)
** Current wind speed in m/s (hover to see current wind gust speed)